When you browse on this site, cookies collect data to enhance your experience and personalize the content and advertising you see.
Visit our Privacy Policy to learn more. By continuing to use the site, you agree to this use of cookies and data.
  • In Latvia
  • List of Countries
  • For 7 days
  • Water Temperature
  • Weather Map
  • Weather Widgets
  • user-avatar
    Login

    Hourly Weather Ropotamo

    Today, 15 December, Sunday

    Time Temperature Precipitation Wind Pressure Humidity
    00:00 +13°C° 0 mm 2 mps 752 mmHg 77%
    01:00 +12°C° 0 mm 2 mps 753 mmHg 77%
    02:00 +12°C° 0 mm 2 mps 753 mmHg 77%
    03:00 +11°C° 0 mm 3 mps 754 mmHg 80%
    04:00 +11°C° 0 mm 3 mps 755 mmHg 83%
    05:00 +11°C° 0 mm 4 mps 755 mmHg 87%
    06:00 +10°C° 0.5 mm 3 mps 756 mmHg 87%
    07:00 +10°C° 0.5 mm 3 mps 757 mmHg 88%
    08:00 +10°C° 0 mm 3 mps 758 mmHg 87%
    09:00 +11°C° 0 mm 4 mps 758 mmHg 79%
    10:00 +12°C° 0 mm 5 mps 759 mmHg 70%
    11:00 +11°C° 0 mm 6 mps 760 mmHg 62%
    12:00 +13°C° 0 mm 5 mps 760 mmHg 59%
    13:00 +13°C° 0 mm 4 mps 760 mmHg 56%
    14:00 +15°C° 0 mm 2 mps 761 mmHg 51%
    15:00 +14°C° 0 mm 2 mps 761 mmHg 56%
    16:00 +13°C° 0 mm 1 mps 761 mmHg 60%
    17:00 +12°C° 0 mm 1 mps 762 mmHg 64%
    18:00 +11°C° 0 mm 1 mps 762 mmHg 65%
    19:00 +11°C° 0 mm 1 mps 763 mmHg 65%
    20:00 +10°C° 0 mm 2 mps 763 mmHg 65%
    21:00 +9°C° 0 mm 2 mps 764 mmHg 65%
    22:00 +9°C° 0 mm 2 mps 764 mmHg 65%
    23:00 +9°C° 0 mm 2 mps 764 mmHg 65%

    Tomorrow, 16 December, Monday

    Time Temperature Precipitation Wind Pressure Humidity
    00:00 +8°C° 0 mm 3 mps 764 mmHg 66%
    01:00 +8°C° 0 mm 3 mps 764 mmHg 67%
    02:00 +8°C° 0 mm 3 mps 764 mmHg 67%
    03:00 +8°C° 0 mm 3 mps 764 mmHg 68%
    04:00 +8°C° 0 mm 3 mps 764 mmHg 69%
    05:00 +8°C° 0 mm 2 mps 764 mmHg 70%
    06:00 +8°C° 0 mm 2 mps 764 mmHg 72%
    07:00 +8°C° 0 mm 2 mps 765 mmHg 74%
    08:00 +7°C° 0 mm 2 mps 765 mmHg 76%
    09:00 +9°C° 0 mm 2 mps 765 mmHg 70%
    10:00 +12°C° 0 mm 2 mps 765 mmHg 65%
    11:00 +14°C° 0 mm 2 mps 765 mmHg 59%
    12:00 +15°C° 0 mm 2 mps 765 mmHg 60%
    13:00 +15°C° 0 mm 2 mps 764 mmHg 61%
    14:00 +16°C° 0 mm 2 mps 764 mmHg 61%
    15:00 +15°C° 0 mm 2 mps 764 mmHg 68%
    16:00 +13°C° 0 mm 1 mps 764 mmHg 74%
    17:00 +12°C° 0 mm 1 mps 764 mmHg 80%
    18:00 +12°C° 0 mm 1 mps 764 mmHg 82%
    19:00 +11°C° 0 mm 1 mps 764 mmHg 84%
    20:00 +10°C° 0 mm 2 mps 764 mmHg 86%
    21:00 +10°C° 0 mm 2 mps 764 mmHg 87%
    22:00 +10°C° 0 mm 2 mps 764 mmHg 88%
    23:00 +9°C° 0 mm 2 mps 764 mmHg 89%

    Day after tomorrow, 17 December, Tuesday

    Time Temperature Precipitation Wind Pressure Humidity
    00:00 +9°C° 0 mm 2 mps 764 mmHg 90%
    01:00 +9°C° 0 mm 2 mps 764 mmHg 91%
    02:00 +9°C° 0 mm 2 mps 764 mmHg 91%
    03:00 +9°C° 0 mm 2 mps 764 mmHg 92%
    04:00 +9°C° 0 mm 2 mps 763 mmHg 92%
    05:00 +9°C° 0 mm 2 mps 763 mmHg 92%
    06:00 +9°C° 0 mm 2 mps 763 mmHg 93%
    07:00 +9°C° 0 mm 2 mps 764 mmHg 93%
    08:00 +9°C° 0 mm 2 mps 764 mmHg 93%
    09:00 +10°C° 0 mm 2 mps 764 mmHg 89%
    10:00 +12°C° 0 mm 3 mps 764 mmHg 85%
    11:00 +13°C° 0 mm 3 mps 764 mmHg 81%
    12:00 +14°C° 0 mm 3 mps 764 mmHg 78%
    13:00 +14°C° 0 mm 3 mps 763 mmHg 76%
    14:00 +16°C° 0 mm 3 mps 763 mmHg 73%
    15:00 +14°C° 0 mm 3 mps 763 mmHg 78%
    16:00 +14°C° 0 mm 2 mps 763 mmHg 83%
    17:00 +13°C° 0 mm 2 mps 763 mmHg 88%
    18:00 +12°C° 0 mm 2 mps 763 mmHg 89%
    19:00 +12°C° 0 mm 2 mps 763 mmHg 90%
    20:00 +12°C° 0 mm 2 mps 763 mmHg 91%
    21:00 +12°C° 0 mm 2 mps 764 mmHg 90%
    22:00 +10°C° 0 mm 2 mps 764 mmHg 90%
    23:00 +10°C° 0 mm 2 mps 764 mmHg 90%

    18 December, Wednesday

    Time Temperature Precipitation Wind Pressure Humidity
    00:00 +10°C° 0 mm 2 mps 764 mmHg 90%
    01:00 +10°C° 0 mm 2 mps 764 mmHg 90%
    02:00 +10°C° 0 mm 2 mps 763 mmHg 90%
    03:00 +10°C° 0 mm 2 mps 763 mmHg 90%
    04:00 +9°C° 0 mm 2 mps 763 mmHg 90%
    05:00 +9°C° 0 mm 2 mps 763 mmHg 90%
    06:00 +9°C° 0 mm 2 mps 764 mmHg 90%
    07:00 +9°C° 0 mm 2 mps 764 mmHg 90%
    08:00 +9°C° 0 mm 2 mps 764 mmHg 90%
    09:00 +12°C° 0 mm 2 mps 764 mmHg 85%
    10:00 +13°C° 0 mm 3 mps 764 mmHg 79%
    11:00 +16°C° 0 mm 3 mps 764 mmHg 74%
    12:00 +16°C° 0 mm 3 mps 764 mmHg 72%
    13:00 +17°C° 0 mm 3 mps 763 mmHg 70%
    14:00 +18°C° 0 mm 3 mps 763 mmHg 68%
    15:00 +17°C° 0 mm 3 mps 763 mmHg 73%
    16:00 +14°C° 0 mm 3 mps 763 mmHg 78%
    17:00 +13°C° 0 mm 3 mps 763 mmHg 83%
    18:00 +13°C° 0 mm 3 mps 763 mmHg 84%
    19:00 +13°C° 0 mm 3 mps 763 mmHg 84%
    20:00 +12°C° 0 mm 3 mps 763 mmHg 85%
    21:00 +12°C° 0 mm 4 mps 763 mmHg 85%
    22:00 +12°C° 0 mm 4 mps 763 mmHg 85%
    23:00 +12°C° 0 mm 4 mps 763 mmHg 85%

    19 December, Thursday

    Time Temperature Precipitation Wind Pressure Humidity
    00:00 +12°C° 0 mm 4 mps 763 mmHg 85%
    01:00 +12°C° 0 mm 4 mps 763 mmHg 86%
    02:00 +13°C° 0 mm 4 mps 763 mmHg 86%
    03:00 +13°C° 0 mm 4 mps 763 mmHg 86%
    04:00 +13°C° 0 mm 4 mps 762 mmHg 85%
    05:00 +13°C° 0 mm 4 mps 762 mmHg 85%
    06:00 +13°C° 0 mm 4 mps 762 mmHg 85%
    07:00 +13°C° 0 mm 4 mps 762 mmHg 85%
    08:00 +13°C° 0 mm 4 mps 762 mmHg 85%
    09:00 +14°C° 0 mm 5 mps 762 mmHg 80%
    10:00 +15°C° 0 mm 5 mps 762 mmHg 76%
    11:00 +17°C° 0 mm 5 mps 762 mmHg 72%
    12:00 +17°C° 0 mm 6 mps 762 mmHg 70%
    13:00 +17°C° 0 mm 6 mps 761 mmHg 68%
    14:00 +19°C° 0 mm 6 mps 761 mmHg 66%
    15:00 +17°C° 0 mm 6 mps 761 mmHg 69%
    16:00 +16°C° 0 mm 6 mps 761 mmHg 72%
    17:00 +15°C° 0 mm 6 mps 761 mmHg 76%
    18:00 +15°C° 0 mm 6 mps 760 mmHg 76%
    19:00 +15°C° 0 mm 6 mps 760 mmHg 76%
    20:00 +15°C° 0 mm 6 mps 760 mmHg 76%
    21:00 +15°C° 0 mm 6 mps 760 mmHg 77%
    22:00 +15°C° 0 mm 6 mps 760 mmHg 78%
    23:00 +15°C° 0 mm 6 mps 760 mmHg 78%

    20 December, Friday

    Time Temperature Precipitation Wind Pressure Humidity
    00:00 +15°C° 0 mm 6 mps 759 mmHg 79%
    01:00 +15°C° 0 mm 5 mps 759 mmHg 80%
    02:00 +14°C° 0 mm 5 mps 759 mmHg 82%
    03:00 +14°C° 0 mm 5 mps 759 mmHg 80%
    04:00 +14°C° 0 mm 5 mps 758 mmHg 79%
    05:00 +14°C° 0 mm 5 mps 758 mmHg 78%
    06:00 +13°C° 0 mm 4 mps 758 mmHg 78%
    07:00 +13°C° 0 mm 4 mps 758 mmHg 79%
    08:00 +13°C° 0 mm 4 mps 758 mmHg 80%
    09:00 +14°C° 0 mm 4 mps 759 mmHg 76%
    10:00 +15°C° 0 mm 5 mps 759 mmHg 72%
    11:00 +15°C° 0 mm 5 mps 759 mmHg 68%
    12:00 +16°C° 0 mm 5 mps 758 mmHg 65%
    13:00 +17°C° 0 mm 5 mps 758 mmHg 62%
    14:00 +17°C° 0 mm 5 mps 757 mmHg 59%
    15:00 +16°C° 0 mm 5 mps 758 mmHg 61%
    16:00 +15°C° 0 mm 4 mps 758 mmHg 63%
    17:00 +14°C° 0 mm 4 mps 758 mmHg 65%
    18:00 +14°C° 0 mm 4 mps 758 mmHg 67%
    19:00 +14°C° 0 mm 4 mps 757 mmHg 69%
    20:00 +14°C° 0 mm 5 mps 757 mmHg 70%
    21:00 +14°C° 0 mm 5 mps 757 mmHg 71%
    22:00 +14°C° 0 mm 4 mps 757 mmHg 71%
    23:00 +14°C° 0 mm 4 mps 757 mmHg 71%
    Show more